Istanbul, Turkey

2:08 PM +03 on January 22, 2018 (GMT +0300)
Ataturk

Weather History for LTBA - August, 2013

Change the Weather History Date:

Wednesday, August 7, 2013

  Actual Average Record
Temperature  
Mean Temperature 80 °F -  
Max Temperature 87 °F 80 °F 96 °F (2012)
Min Temperature 74 °F 67 °F 64 °F (2014)
Cooling Degree Days 16    
Growing Degree Days 30 (Base 50)    
Moisture  
Dew Point 61 °F    
Average Humidity 53    
Maximum Humidity 78    
Minimum Humidity 22    
Precipitation  
Precipitation 0.00 in - - ()
Sea Level Pressure  
Sea Level Pressure 29.97 in    
Wind  
Wind Speed 9 mph ()    
Max Wind Speed 18 mph    
Max Gust Speed 21 mph    
Visibility 6.2 miles    
Events      
Averages and records for this station are not official NWS values.
T = Trace of Precipitation, MM = Missing Value Source: Averaged Metar Reports

Daily Weather History Graph

Daily Weather History Graph

Search for Another Location

Airport or City:

Trip Planner

Search our weather history database for the weather conditions in past years. The results will help you decide how hot, cold, wet, or windy it might be!

Date:

Astronomy

Aug. 07, 2013 Rise Set
Actual Time 6:06 AM EEST 8:13 PM EEST
Civil Twilight 5:36 AM EEST 8:43 PM EEST
Nautical Twilight 4:59 AM EEST 9:20 PM EEST
Astronomical Twilight 4:18 AM EEST 10:01 PM EEST
Moon 6:36 AM EEST (8/7) 8:09 PM EEST (8/7)
Length of Visible Light 15h 07m
Length of Day
14h 07m
New Moon, 0% of the Moon is Illuminated
Aug 7
New Moon
Aug 14
First Quarter
Aug 21
Full
Aug 28
Last Quarter
Sep 5
New

Hourly Weather History & Observations

Time (EEST) Temp. Heat Index Dew Point Humidity Pressure Visibility Wind Dir Wind Speed Gust Speed Precip Events Conditions
12:20 AM 77.0 °F - 66.2 °F 69% 29.95 in - NNE 8.1 mph - N/A   Clear
12:50 AM 77.0 °F - 66.2 °F 69% 29.95 in - NE 6.9 mph - N/A   Clear
1:20 AM 77.0 °F - 66.2 °F 69% 29.95 in - Variable 5.8 mph - N/A   Clear
1:50 AM 75.2 °F - 66.2 °F 73% 29.95 in - NNE 6.9 mph - N/A   Clear
2:20 AM 75.2 °F - 66.2 °F 73% 29.95 in - NNE 6.9 mph - N/A   Clear
2:50 AM 75.2 °F - 66.2 °F 73% 29.92 in - NNE 5.8 mph - N/A   Clear
3:00 AM 75 °F - 66 °F 67% 29.94 in 6 mi NNE 5.8 mph - -  
3:20 AM 75.2 °F - 66.2 °F 73% 29.92 in - NE 6.9 mph - N/A   Clear
3:50 AM 75.2 °F - 66.2 °F 73% 29.92 in - NE 6.9 mph - N/A   Clear
4:20 AM 75.2 °F - 66.2 °F 73% 29.92 in - NE 5.8 mph - N/A   Clear
4:50 AM 75.2 °F - 66.2 °F 73% 29.92 in - NNE 5.8 mph - N/A   Clear
5:20 AM 73.4 °F - 66.2 °F 78% 29.95 in - NNE 8.1 mph - N/A   Clear
5:50 AM 75.2 °F - 64.4 °F 69% 29.95 in - NNE 8.1 mph - N/A   Clear
6:20 AM 75.2 °F - 64.4 °F 69% 29.95 in 6.2 mi NNE 6.9 mph - N/A   Partly Cloudy
6:50 AM 75.2 °F - 64.4 °F 69% 29.95 in 6.2 mi NNE 8.1 mph - N/A   Partly Cloudy
7:20 AM 77.0 °F - 64.4 °F 65% 29.95 in 6.2 mi NNE 6.9 mph - N/A   Partly Cloudy
7:50 AM 77.0 °F - 62.6 °F 61% 29.95 in 6.2 mi NE 6.9 mph - N/A   Partly Cloudy
8:20 AM 78.8 °F - 62.6 °F 57% 29.95 in 6.2 mi NE 11.5 mph - N/A   Partly Cloudy
8:50 AM 80.6 °F 81.5 °F 60.8 °F 51% 29.98 in 6.2 mi Variable 11.5 mph - N/A   Scattered Clouds
9:00 AM 80 °F - 61 °F 43% 29.97 in 6 mi ENE 11.5 mph - -   Partly Cloudy
9:20 AM 82.4 °F 82.0 °F 57.2 °F 42% 29.98 in 6.2 mi ENE 11.5 mph - N/A   Scattered Clouds
9:50 AM 80.6 °F - 51.8 °F 37% 29.98 in 6.2 mi ENE 13.8 mph - N/A   Scattered Clouds
10:20 AM 82.4 °F 81.4 °F 53.6 °F 37% 29.98 in 6.2 mi NE 12.7 mph - N/A   Scattered Clouds
10:50 AM 82.4 °F 81.7 °F 55.4 °F 39% 29.98 in 6.2 mi NNE 16.1 mph - N/A   Scattered Clouds
11:20 AM 82.4 °F 81.4 °F 53.6 °F 37% 29.98 in 6.2 mi NNE 15.0 mph - N/A   Scattered Clouds
11:50 AM 84.2 °F 82.8 °F 53.6 °F 35% 29.98 in 6.2 mi NNE 15.0 mph - N/A   Scattered Clouds
12:20 PM 84.2 °F - 51.8 °F 33% 29.98 in 6.2 mi NNE 16.1 mph - N/A   Scattered Clouds
12:50 PM 84.2 °F - 51.8 °F 33% 29.98 in 6.2 mi NNE 17.3 mph - N/A   Scattered Clouds
1:20 PM 84.2 °F 82.8 °F 53.6 °F 35% 29.98 in 6.2 mi NNE 16.1 mph - N/A   Scattered Clouds
1:50 PM 84.2 °F 82.8 °F 53.6 °F 35% 29.98 in 6.2 mi NNE 16.1 mph - N/A   Scattered Clouds
2:20 PM 86.0 °F 84.2 °F 53.6 °F 33% 29.98 in 6.2 mi NE 16.1 mph - N/A   Scattered Clouds
2:50 PM 84.2 °F 82.8 °F 53.6 °F 35% 29.98 in 6.2 mi NE 18.4 mph - N/A   Scattered Clouds
3:00 PM 85 °F - 52 °F 22% 29.98 in 6 mi NE 18.4 mph - -   Partly Cloudy
3:20 PM 84.2 °F 83.0 °F 55.4 °F 37% 29.98 in 6.2 mi NE 16.1 mph - N/A   Scattered Clouds
3:50 PM 84.2 °F 83.0 °F 55.4 °F 37% 29.98 in 6.2 mi NE 17.3 mph - N/A   Scattered Clouds
4:20 PM 84.2 °F 83.5 °F 57.2 °F 40% 29.98 in 6.2 mi NE 16.1 mph - N/A   Partly Cloudy
4:50 PM 86.0 °F 84.2 °F 53.6 °F 33% 29.98 in 6.2 mi NE 15.0 mph - N/A   Partly Cloudy
5:20 PM 84.2 °F 83.0 °F 55.4 °F 37% 29.98 in - NNE 15.0 mph - N/A   Clear
5:50 PM 82.4 °F 81.7 °F 55.4 °F 39% 29.98 in - North 18.4 mph - N/A   Clear
6:20 PM 82.4 °F 82.0 °F 57.2 °F 42% 29.98 in - NNE 16.1 mph - N/A   Clear
6:50 PM 80.6 °F 81.1 °F 59.0 °F 48% 29.98 in - NNE 17.3 mph - N/A   Clear
7:20 PM 80.6 °F 81.5 °F 60.8 °F 51% 29.98 in - NNE 13.8 mph - N/A   Clear
8:20 PM 80.6 °F 82.7 °F 66.2 °F 61% 29.98 in - NNE 12.7 mph - N/A   Clear
8:50 PM 80.6 °F 82.7 °F 66.2 °F 61% 30.01 in - NNE 12.7 mph - N/A   Clear
9:00 PM 80 °F - 65 °F 50% 30.00 in 6 mi NNE 12.7 mph - -  
9:20 PM 80.6 °F 82.3 °F 64.4 °F 58% 30.01 in - NE 9.2 mph - N/A   Clear
9:50 PM 80.6 °F 82.7 °F 66.2 °F 61% 30.01 in - Variable 8.1 mph 20.7 mph N/A   Clear
10:20 PM 78.8 °F - 66.2 °F 65% 30.01 in - NNE 12.7 mph - N/A   Clear
10:50 PM 77.0 °F - 66.2 °F 69% 30.01 in - NNE 12.7 mph - N/A   Clear
11:20 PM 77.0 °F - 66.2 °F 69% 30.01 in - NNE 11.5 mph - N/A   Clear
11:50 PM 77.0 °F - 66.2 °F 69% 30.01 in - NE 9.2 mph - N/A   Clear